TimeEST,TemperatureF,Dew PointF,Humidity,Sea Level PressureIn,VisibilityMPH,Wind Direction,Wind SpeedMPH,Gust SpeedMPH,PrecipitationIn,Events,Conditions,WindDirDegrees,DateUTC
12:51 AM,23.0,18.0,81,29.95,-9999.0,NNW,12.7,20.7,N/A,,Unknown,330,2012-12-12 05:51:00
1:51 AM,19.9,18.0,92,29.98,-9999.0,WSW,5.8,-,0.02,,Unknown,240,2012-12-12 06:51:00
2:51 AM,19.9,17.1,89,29.99,-9999.0,Variable,5.8,-,0.01,,Unknown,0,2012-12-12 07:51:00
3:51 AM,19.0,16.0,88,30.03,-9999.0,WSW,6.9,-,N/A,,Unknown,250,2012-12-12 08:51:00
4:51 AM,19.0,16.0,88,30.05,-9999.0,WSW,6.9,-,N/A,,Unknown,250,2012-12-12 09:51:00
5:51 AM,19.0,16.0,88,30.07,-9999.0,WSW,6.9,-,N/A,,Unknown,250,2012-12-12 10:51:00
6:51 AM,19.0,16.0,88,30.09,-9999.0,West,3.5,-,0.01,,Unknown,260,2012-12-12 11:51:00
7:51 AM,19.0,16.0,88,30.12,-9999.0,Variable,3.5,-,N/A,,Unknown,0,2012-12-12 12:51:00
8:51 AM,18.0,14.0,84,30.14,-9999.0,WSW,8.1,17.3,N/A,,Unknown,240,2012-12-12 13:51:00
9:51 AM,18.0,14.0,84,30.16,-9999.0,Variable,5.8,-,N/A,,Unknown,0,2012-12-12 14:51:00
10:51 AM,19.0,15.1,85,30.17,-9999.0,WSW,4.6,-,N/A,,Unknown,250,2012-12-12 15:51:00
11:51 AM,21.0,16.0,81,30.16,-9999.0,SW,6.9,-,N/A,,Unknown,220,2012-12-12 16:51:00
12:51 PM,23.0,17.1,78,30.14,-9999.0,Variable,3.5,-,N/A,,Unknown,0,2012-12-12 17:51:00
1:51 PM,24.1,18.0,77,30.13,-9999.0,South,5.8,-,N/A,,Unknown,190,2012-12-12 18:51:00
2:51 PM,26.1,18.0,71,30.09,-9999.0,Variable,6.9,-,N/A,,Unknown,0,2012-12-12 19:51:00
3:51 PM,27.0,19.0,72,30.06,-9999.0,South,8.1,-,N/A,,Unknown,190,2012-12-12 20:51:00
4:51 PM,28.9,21.0,72,30.01,-9999.0,SSW,13.8,27.6,N/A,,Unknown,210,2012-12-12 21:51:00
5:51 PM,30.9,24.1,76,29.99,-9999.0,SSW,9.2,23.0,N/A,,Unknown,210,2012-12-12 22:51:00
6:51 PM,32.0,23.0,69,29.99,-9999.0,Variable,4.6,16.1,N/A,,Unknown,0,2012-12-12 23:51:00
7:51 PM,33.1,24.1,70,29.97,-9999.0,SW,5.8,-,N/A,,Unknown,220,2012-12-13 00:51:00
8:51 PM,34.0,24.1,67,29.97,-9999.0,SW,6.9,-,N/A,,Unknown,230,2012-12-13 01:51:00
9:51 PM,34.0,25.0,70,29.97,-9999.0,SW,6.9,-,N/A,,Unknown,230,2012-12-13 02:51:00
10:51 PM,35.1,27.0,72,29.96,-9999.0,WSW,9.2,17.3,N/A,,Unknown,240,2012-12-13 03:51:00
11:51 PM,36.0,27.0,70,29.96,-9999.0,SW,8.1,-,N/A,,Unknown,230,2012-12-13 04:51:00